This is the latest recevied weather packets stored in our database for station/object KQ4KX. If no packets are shown the sender has not sent any weather packets the latest 10 day(s).
| Time | Temp. | Humidity | Pressure | Rain* | Wind** | Luminosity | Snow |
|---|---|---|---|---|---|---|---|
| 1787864858 | 26.11° C | 93% | 1015.9 hPa | 0 mm | - | - | - |
| 1787864558 | 26.11° C | 93% | 1015.9 hPa | 0 mm | - | - | - |
| 1787864400 | 26.11° C | 93% | 1015.9 hPa | 0 mm | - | - | - |
| 1787864258 | 26.11° C | 93% | 1015.9 hPa | 0 mm | - | - | - |
| 1787863928 | 26.11° C | 93% | 1015.9 hPa | 0 mm | - | - | - |
| 1787863298 | 25.56° C | 94% | 1016.1 hPa | 0 mm | - | - | - |
| 1787862998 | 25.56° C | 95% | 1016.1 hPa | 0 mm | - | - | - |
| 1787862752 | 25° C | 95% | 1016.1 hPa | 0 mm | - | - | - |
| 1787862669 | 25° C | 95% | 1016.1 hPa | 0 mm | - | - | - |
| 1787862338 | 24.44° C | 96% | 1016.1 hPa | 0 mm | - | - | - |
| 1787862111 | 24.44° C | 98% | 1016.1 hPa | 0.25 mm | - | - | - |
| 1787862038 | 24.44° C | 98% | 1016.1 hPa | 0.25 mm | - | - | - |
| 1787861804 | 24.44° C | 99% | 1016 hPa | 0.76 mm | - | - | - |
| 1787861738 | 24.44° C | 99% | 1016 hPa | 0.76 mm | - | - | - |
| 1787861438 | 23.89° C | 99% | 1016.1 hPa | 1.27 mm | - | - | - |
| 1787861202 | 23.89° C | 98% | 1016.4 hPa | 2.79 mm | - | - | - |
| 1787861138 | 23.89° C | 98% | 1016.4 hPa | 2.79 mm | - | - | - |
| 1787860882 | 23.89° C | 98% | 1016.5 hPa | 5.59 mm | - | - | - |
| 1787860809 | 23.89° C | 98% | 1016.5 hPa | 5.59 mm | - | - | - |
| 1787860210 | 23.33° C | 98% | 1016.5 hPa | 11.94 mm | - | - | - |
| 1787859992 | 23.33° C | 97% | 1016.5 hPa | 12.19 mm | - | - | - |
| 1787859878 | 23.33° C | 97% | 1016.5 hPa | 12.19 mm | - | - | - |
| 1787859548 | 23.33° C | 97% | 1016.3 hPa | 12.19 mm | - | - | - |
| 1787859340 | 23.33° C | 97% | 1016.2 hPa | 12.19 mm | - | - | - |
| 1787859249 | 23.33° C | 97% | 1016.2 hPa | 12.19 mm | - | - | - |
* Rain latest hour (hover to see other rain measurements)
** Current wind speed in m/s (hover to see current wind gust speed)